EXS79AF LYTV-EGBB

Flight info

Callsign EXS79AF
Flight time N/A
Altitude 34000
Route KOFER DCT SAL DCT IPKIS DCT IXONA DCT RESIA DCT ELMUR DCT RIPUS DCT DITON DCT HOC DCT LUL DCT RLP DCT ROTSI DCT KOTUN DCT NINAL DCT ABNUR DCT DIMAL DCT ALESO T420 HEMEL
Aircraft B738/M-SDE2E3FGHIRWXY/LB1

Departure

Time 2026-04-30 12:32
Airport Tivat Airport (LYTV)

Arrival

Time N/A
Airport Birmingham Airport (EGBB)
Time Latitude Longitude Altitude Speed Heading
2026-04-30 11:43 42.41255 18.71644 43 ft 0 kts 148°
2026-04-30 12:16 42.41250 18.71648 45 ft 2 kts 150°
2026-04-30 12:17 42.41180 18.71675 45 ft 9 kts 150°
2026-04-30 12:17 42.41120 18.71741 45 ft 13 kts 136°
2026-04-30 12:17 42.41060 18.71813 45 ft 8 kts 139°
2026-04-30 12:18 42.41009 18.71853 44 ft 5 kts 192°
2026-04-30 12:18 42.40998 18.71847 45 ft 1 kts 206°
2026-04-30 12:18 42.40997 18.71847 45 ft 0 kts 208°
2026-04-30 12:20 42.41002 18.71851 44 ft 0 kts 212°
2026-04-30 12:26 42.41002 18.71850 44 ft 0 kts 214°
2026-04-30 12:26 42.40996 18.71844 44 ft 2 kts 217°
2026-04-30 12:27 42.40983 18.71828 47 ft 3 kts 224°
2026-04-30 12:27 42.40962 18.71801 45 ft 5 kts 217°
2026-04-30 12:27 42.40915 18.71803 46 ft 9 kts 152°
2026-04-30 12:27 42.40857 18.71868 45 ft 13 kts 138°
2026-04-30 12:28 42.40776 18.71964 41 ft 17 kts 138°
2026-04-30 12:28 42.40677 18.72081 40 ft 21 kts 139°
2026-04-30 12:28 42.40586 18.72190 40 ft 17 kts 138°
2026-04-30 12:28 42.40490 18.72305 41 ft 20 kts 139°
2026-04-30 12:29 42.40382 18.72434 45 ft 21 kts 140°
2026-04-30 12:29 42.40267 18.72566 46 ft 23 kts 138°
2026-04-30 12:29 42.40143 18.72717 45 ft 25 kts 139°
2026-04-30 12:29 42.40003 18.72879 44 ft 28 kts 139°
2026-04-30 12:30 42.39876 18.73026 40 ft 20 kts 139°
2026-04-30 12:30 42.39766 18.73157 41 ft 22 kts 138°
2026-04-30 12:30 42.39657 18.73288 41 ft 10 kts 147°
2026-04-30 12:30 42.39634 18.73294 41 ft 4 kts 138°
2026-04-30 12:31 42.39637 18.73305 42 ft 1 kts 31°
2026-04-30 12:31 42.39653 18.73295 41 ft 0 kts 322°
2026-04-30 12:31 42.39658 18.73289 41 ft 2 kts 320°
2026-04-30 12:31 42.39760 18.73170 41 ft 50 kts 319°
2026-04-30 12:32 42.40203 18.72645 45 ft 117 kts 319°
2026-04-30 12:32 42.40962 18.71752 68 ft 168 kts 319°
2026-04-30 12:32 42.41836 18.70692 739 ft 165 kts 322°
2026-04-30 12:32 42.42572 18.69481 1220 ft 179 kts 292°
2026-04-30 12:33 42.42504 18.67734 1615 ft 203 kts 245°
2026-04-30 12:33 42.41471 18.66291 1734 ft 225 kts 210°
2026-04-30 12:33 42.40042 18.65394 1875 ft 230 kts 206°
2026-04-30 12:33 42.38565 18.64261 1787 ft 257 kts 217°
2026-04-30 12:34 42.37156 18.62844 2834 ft 246 kts 217°
2026-04-30 12:34 42.35826 18.61476 3839 ft 238 kts 217°
2026-04-30 12:34 42.34493 18.60116 4543 ft 241 kts 217°
2026-04-30 12:34 42.33129 18.58822 5296 ft 242 kts 206°
2026-04-30 12:35 42.31451 18.58423 5719 ft 258 kts 175°
2026-04-30 12:35 42.29600 18.58767 6032 ft 277 kts 172°
2026-04-30 12:35 42.27646 18.59133 6584 ft 286 kts 173°
2026-04-30 12:35 42.25669 18.59480 7336 ft 287 kts 174°
2026-04-30 12:36 42.23680 18.59816 8124 ft 289 kts 175°
2026-04-30 12:36 42.21679 18.60188 8867 ft 293 kts 173°
2026-04-30 12:36 42.19650 18.60622 9583 ft 297 kts 173°
2026-04-30 12:36 42.17603 18.61071 10310 ft 299 kts 173°
2026-04-30 12:37 42.15538 18.61522 10969 ft 303 kts 173°
2026-04-30 12:37 42.13445 18.61976 11645 ft 307 kts 174°
2026-04-30 12:37 42.11329 18.62431 12361 ft 309 kts 174°
2026-04-30 12:37 42.09186 18.62890 13039 ft 314 kts 174°
2026-04-30 12:38 42.07016 18.63352 13740 ft 318 kts 175°
2026-04-30 12:38 42.04821 18.63517 14373 ft 314 kts 194°
2026-04-30 12:38 42.02826 18.62493 15066 ft 303 kts 220°
2026-04-30 12:38 42.01382 18.60583 15810 ft 292 kts 242°
2026-04-30 12:39 42.00561 18.58111 16304 ft 295 kts 260°
2026-04-30 12:39 42.00470 18.55300 16444 ft 311 kts 280°
2026-04-30 12:39 42.01186 18.52484 16599 ft 330 kts 300°
2026-04-30 12:39 42.02571 18.49956 17029 ft 340 kts 306°
2026-04-30 12:40 42.04070 18.47472 17683 ft 343 kts 307°
2026-04-30 12:40 42.05595 18.45002 18413 ft 343 kts 307°
2026-04-30 12:40 42.07124 18.42528 19008 ft 345 kts 307°
2026-04-30 12:40 42.08658 18.40036 19584 ft 346 kts 306°
2026-04-30 12:41 42.10193 18.37528 20157 ft 348 kts 306°
2026-04-30 12:41 42.11730 18.35002 20714 ft 350 kts 305°
2026-04-30 12:41 42.13276 18.32452 21263 ft 352 kts 305°
2026-04-30 12:41 42.14829 18.29881 21809 ft 355 kts 305°
2026-04-30 12:42 42.16390 18.27294 22381 ft 357 kts 305°
2026-04-30 12:42 42.17963 18.24681 22903 ft 360 kts 305°
2026-04-30 12:42 42.19545 18.22050 23439 ft 362 kts 304°
2026-04-30 12:42 42.21133 18.19406 23906 ft 364 kts 304°
2026-04-30 12:43 42.22729 18.16747 24350 ft 365 kts 304°
2026-04-30 12:43 42.24327 18.14083 24800 ft 366 kts 304°
2026-04-30 12:43 42.25928 18.11410 25238 ft 367 kts 304°
2026-04-30 12:43 42.27532 18.08730 25656 ft 368 kts 304°
2026-04-30 12:44 42.29143 18.06034 26066 ft 369 kts 304°
2026-04-30 12:44 42.30760 18.03327 26481 ft 371 kts 304°
2026-04-30 12:44 42.32377 18.00617 26873 ft 372 kts 304°
2026-04-30 12:44 42.34005 17.97887 27264 ft 373 kts 304°
2026-04-30 12:45 42.35613 17.95187 27647 ft 374 kts 304°
2026-04-30 12:45 42.37273 17.92398 28024 ft 376 kts 304°
2026-04-30 12:45 42.38892 17.89675 28385 ft 377 kts 304°
2026-04-30 12:45 42.40537 17.86905 28748 ft 378 kts 304°
2026-04-30 12:46 42.42187 17.84125 29095 ft 380 kts 303°
2026-04-30 12:46 42.43843 17.81331 29438 ft 382 kts 304°
2026-04-30 12:46 42.45512 17.78514 29745 ft 384 kts 303°
2026-04-30 12:46 42.47180 17.75695 30108 ft 384 kts 303°
2026-04-30 12:47 42.48843 17.72885 30530 ft 381 kts 304°
2026-04-30 12:47 42.50503 17.70075 30826 ft 382 kts 304°
2026-04-30 12:47 42.52164 17.67261 31090 ft 383 kts 304°
2026-04-30 12:47 42.53826 17.64443 31421 ft 382 kts 304°
2026-04-30 12:48 42.55484 17.61628 31764 ft 381 kts 304°
2026-04-30 12:48 42.57136 17.58822 32074 ft 381 kts 304°
2026-04-30 12:48 42.58791 17.56007 32362 ft 381 kts 304°
2026-04-30 12:48 42.60443 17.53194 32679 ft 381 kts 304°
2026-04-30 12:49 42.62091 17.50386 32996 ft 380 kts 304°
2026-04-30 12:49 42.63736 17.47579 33272 ft 380 kts 304°
2026-04-30 12:49 42.65382 17.44768 33554 ft 380 kts 304°
2026-04-30 12:49 42.67025 17.41960 33880 ft 379 kts 304°
2026-04-30 12:50 42.68666 17.39153 34144 ft 379 kts 305°
2026-04-30 12:50 42.70313 17.36331 34246 ft 384 kts 305°
2026-04-30 12:50 42.73664 17.30580 34476 ft 389 kts 305°
2026-04-30 12:51 42.75342 17.27700 34742 ft 388 kts 305°
2026-04-30 12:51 42.77018 17.24821 34945 ft 389 kts 305°
2026-04-30 12:51 42.78700 17.21927 35093 ft 390 kts 306°
2026-04-30 12:51 42.80387 17.19022 35218 ft 393 kts 306°
2026-04-30 12:52 42.82085 17.16093 35361 ft 395 kts 306°
2026-04-30 12:52 42.83764 17.13196 35541 ft 395 kts 306°
2026-04-30 12:52 42.85463 17.10261 35755 ft 395 kts 306°
2026-04-30 12:52 42.87164 17.07321 35939 ft 395 kts 306°
2026-04-30 12:53 42.88867 17.04373 36085 ft 396 kts 306°
2026-04-30 12:53 42.90578 17.01408 36132 ft 399 kts 306°
2026-04-30 12:53 42.94015 16.95445 36136 ft 398 kts 306°
2026-04-30 12:54 42.97425 16.89517 36148 ft 396 kts 306°
2026-04-30 12:54 43.00814 16.83615 36141 ft 394 kts 306°
2026-04-30 12:55 43.04185 16.77729 36143 ft 393 kts 306°
2026-04-30 12:55 43.07545 16.71852 36152 ft 392 kts 306°
2026-04-30 12:56 43.10908 16.65957 36149 ft 394 kts 306°
2026-04-30 12:56 43.14280 16.60034 36162 ft 396 kts 306°
2026-04-30 12:57 43.17674 16.54061 36170 ft 399 kts 306°
2026-04-30 12:57 43.21087 16.48044 36172 ft 401 kts 306°
2026-04-30 12:58 43.23934 16.43013 36174 ft 403 kts 306°
2026-04-30 12:58 43.27375 16.36923 36174 ft 405 kts 306°
2026-04-30 12:59 43.30826 16.30803 36173 ft 406 kts 306°
2026-04-30 12:59 43.34276 16.24672 36180 ft 406 kts 306°
2026-04-30 13:00 43.37729 16.18522 36182 ft 406 kts 306°
2026-04-30 13:00 43.41172 16.12376 36181 ft 405 kts 306°
2026-04-30 13:01 43.44607 16.06234 36180 ft 405 kts 306°
2026-04-30 13:01 43.48028 16.00103 36180 ft 403 kts 306°
2026-04-30 13:02 43.51441 15.93972 36182 ft 403 kts 307°
2026-04-30 13:02 43.54845 15.87846 36182 ft 402 kts 307°
2026-04-30 13:03 43.58241 15.81721 36183 ft 402 kts 307°
2026-04-30 13:03 43.61632 15.75593 36197 ft 402 kts 306°
2026-04-30 13:04 43.65019 15.69458 36196 ft 402 kts 306°
2026-04-30 13:04 43.68407 15.63310 36192 ft 402 kts 307°
2026-04-30 13:05 43.71773 15.57187 36208 ft 403 kts 307°
2026-04-30 13:06 43.76855 15.47920 36209 ft 404 kts 306°
2026-04-30 13:06 43.80248 15.41716 36219 ft 404 kts 306°
2026-04-30 13:07 43.83642 15.35498 36232 ft 405 kts 306°
2026-04-30 13:07 43.87036 15.29265 36231 ft 406 kts 306°
2026-04-30 13:08 43.90435 15.23009 36224 ft 406 kts 306°
2026-04-30 13:08 43.93828 15.16752 36229 ft 406 kts 306°
2026-04-30 13:09 43.97099 15.10374 36232 ft 405 kts 304°
2026-04-30 13:09 44.00299 15.03927 36251 ft 405 kts 304°
2026-04-30 13:10 44.03505 14.97476 36230 ft 406 kts 304°
2026-04-30 13:10 44.06720 14.91027 36226 ft 406 kts 304°
2026-04-30 13:11 44.09917 14.84612 36234 ft 406 kts 304°
2026-04-30 13:11 44.13126 14.78159 36237 ft 406 kts 304°
2026-04-30 13:12 44.16336 14.71690 36238 ft 407 kts 304°
2026-04-30 13:12 44.19548 14.65202 36239 ft 407 kts 304°
2026-04-30 13:13 44.24368 14.55439 36245 ft 408 kts 304°
2026-04-30 13:14 44.29189 14.45640 36249 ft 409 kts 304°
2026-04-30 13:14 44.34014 14.35801 36245 ft 410 kts 304°
2026-04-30 13:15 44.39128 14.26247 36253 ft 410 kts 311°
2026-04-30 13:16 44.42975 14.20357 36248 ft 410 kts 312°
2026-04-30 13:16 44.46823 14.14464 36247 ft 411 kts 312°
2026-04-30 13:17 44.52565 14.05529 36261 ft 411 kts 312°
2026-04-30 13:18 44.58281 13.96563 36251 ft 412 kts 312°
2026-04-30 13:18 44.64010 13.87547 36257 ft 412 kts 312°
2026-04-30 13:19 44.67822 13.81531 36261 ft 412 kts 312°
2026-04-30 13:19 44.71633 13.75505 36262 ft 413 kts 312°
2026-04-30 13:20 44.75442 13.69469 36269 ft 412 kts 312°
2026-04-30 13:20 44.79247 13.63426 36265 ft 413 kts 312°
2026-04-30 13:21 44.83052 13.57372 36265 ft 413 kts 312°
2026-04-30 13:22 44.88265 13.47771 36264 ft 414 kts 306°
2026-04-30 13:22 44.93144 13.37664 36261 ft 413 kts 306°
2026-04-30 13:23 44.98031 13.27638 36272 ft 413 kts 306°
2026-04-30 13:24 45.04541 13.14320 36278 ft 414 kts 306°
2026-04-30 13:25 45.11069 13.00909 36271 ft 414 kts 307°
2026-04-30 13:26 45.19212 12.84088 36292 ft 415 kts 306°
2026-04-30 13:28 45.27344 12.67191 36303 ft 415 kts 307°
2026-04-30 13:28 45.32223 12.57005 36295 ft 416 kts 307°
2026-04-30 13:29 45.38731 12.43362 36291 ft 417 kts 307°
2026-04-30 13:31 45.46856 12.26237 36297 ft 418 kts 306°
2026-04-30 13:32 45.54981 12.09006 36290 ft 419 kts 307°
2026-04-30 13:33 45.61452 11.95208 36293 ft 420 kts 307°
2026-04-30 13:34 45.66316 11.84791 36294 ft 420 kts 307°
2026-04-30 13:35 45.72789 11.70871 36282 ft 421 kts 306°
2026-04-30 13:36 45.79257 11.56892 36288 ft 421 kts 307°
2026-04-30 13:36 45.84102 11.46373 36284 ft 422 kts 307°
2026-04-30 13:37 45.88941 11.35831 36271 ft 421 kts 306°
2026-04-30 13:38 45.93759 11.25293 36271 ft 420 kts 306°
2026-04-30 13:39 46.00169 11.11212 36248 ft 422 kts 306°
2026-04-30 13:40 46.04973 11.00613 36264 ft 422 kts 307°
2026-04-30 13:40 46.08178 10.93519 36258 ft 422 kts 307°
2026-04-30 13:41 46.11378 10.86420 36271 ft 423 kts 307°
2026-04-30 13:41 46.14582 10.79293 36227 ft 424 kts 306°
2026-04-30 13:42 46.17790 10.72138 36254 ft 425 kts 306°
2026-04-30 13:42 46.22581 10.61420 36237 ft 423 kts 306°
2026-04-30 13:43 46.25743 10.54321 36241 ft 424 kts 306°
2026-04-30 13:43 46.28937 10.47136 36223 ft 425 kts 306°
2026-04-30 13:44 46.32119 10.39953 36232 ft 424 kts 306°
2026-04-30 13:44 46.35298 10.32766 36224 ft 424 kts 306°
2026-04-30 13:45 46.40067 10.21941 36223 ft 426 kts 306°
2026-04-30 13:46 46.43248 10.14699 36234 ft 426 kts 306°
2026-04-30 13:46 46.46430 10.07439 36222 ft 427 kts 306°
2026-04-30 13:47 46.49270 10.01623 36241 ft 423 kts 314°
2026-04-30 13:47 46.53182 9.95250 36236 ft 423 kts 315°
2026-04-30 13:48 46.57134 9.88904 36240 ft 424 kts 315°
2026-04-30 13:48 46.61064 9.82496 36247 ft 425 kts 315°
2026-04-30 13:49 46.64979 9.76041 36224 ft 426 kts 314°
2026-04-30 13:49 46.68884 9.69572 36226 ft 425 kts 314°
2026-04-30 13:50 46.72787 9.63088 36211 ft 425 kts 314°
2026-04-30 13:50 46.78636 9.53348 36188 ft 426 kts 314°
2026-04-30 13:51 46.82543 9.46824 36201 ft 428 kts 314°
2026-04-30 13:51 46.86456 9.40272 36169 ft 428 kts 314°
2026-04-30 13:52 46.90366 9.33709 36191 ft 428 kts 314°
2026-04-30 13:52 46.94285 9.27118 36185 ft 430 kts 314°
2026-04-30 13:53 46.98218 9.20485 36202 ft 432 kts 314°
2026-04-30 13:53 47.02157 9.13826 36194 ft 433 kts 314°
2026-04-30 13:54 47.06076 9.07182 36198 ft 434 kts 314°
2026-04-30 13:54 47.10022 9.00479 36196 ft 435 kts 314°
2026-04-30 13:55 47.13971 8.93743 36212 ft 436 kts 312°
2026-04-30 13:55 47.17051 8.86013 36217 ft 444 kts 294°
2026-04-30 13:56 47.19163 8.77454 36219 ft 446 kts 292°
2026-04-30 13:56 47.21265 8.68867 36206 ft 446 kts 293°
2026-04-30 13:57 47.23411 8.60309 36221 ft 446 kts 293°
2026-04-30 13:57 47.25561 8.51761 36227 ft 445 kts 293°
2026-04-30 13:58 47.28780 8.38960 36197 ft 445 kts 293°
2026-04-30 13:59 47.30927 8.30406 36196 ft 444 kts 293°
2026-04-30 13:59 47.33062 8.21859 36186 ft 444 kts 292°
2026-04-30 14:00 47.35191 8.13309 36199 ft 444 kts 292°
2026-04-30 14:00 47.38374 8.00462 36209 ft 445 kts 292°
2026-04-30 14:01 47.40491 7.91876 36198 ft 446 kts 292°
2026-04-30 14:01 47.42604 7.83273 36199 ft 446 kts 292°
2026-04-30 14:02 47.44714 7.74652 36200 ft 446 kts 292°
2026-04-30 14:02 47.46805 7.66017 36207 ft 447 kts 290°
2026-04-30 14:03 47.48419 7.57123 36215 ft 449 kts 285°
2026-04-30 14:03 47.49834 7.48136 36178 ft 449 kts 285°
2026-04-30 14:04 47.51258 7.39225 36183 ft 448 kts 285°
2026-04-30 14:04 47.52724 7.30258 36195 ft 448 kts 285°
2026-04-30 14:05 47.54194 7.21305 36187 ft 448 kts 285°
2026-04-30 14:05 47.55659 7.12345 36190 ft 448 kts 285°
2026-04-30 14:06 47.57840 6.98900 36187 ft 448 kts 285°
2026-04-30 14:07 47.60007 6.85429 36181 ft 449 kts 285°
2026-04-30 14:08 47.62165 6.71904 36195 ft 450 kts 285°
2026-04-30 14:08 47.64314 6.58322 36185 ft 452 kts 284°
2026-04-30 14:09 47.65743 6.49227 36159 ft 454 kts 284°
2026-04-30 14:10 47.67882 6.35525 36166 ft 455 kts 284°
2026-04-30 14:10 47.69397 6.26405 36154 ft 455 kts 288°
2026-04-30 14:11 47.71294 6.17460 36160 ft 454 kts 289°
2026-04-30 14:11 47.73247 6.08547 36164 ft 454 kts 289°
2026-04-30 14:12 47.75158 5.99626 36153 ft 453 kts 289°
2026-04-30 14:12 47.77038 5.90693 36153 ft 452 kts 289°
2026-04-30 14:13 47.78889 5.81830 36159 ft 451 kts 288°
2026-04-30 14:13 47.80743 5.72921 36158 ft 451 kts 288°
2026-04-30 14:14 47.82590 5.64012 36158 ft 451 kts 288°
2026-04-30 14:14 47.84430 5.55096 36154 ft 451 kts 288°
2026-04-30 14:15 47.86263 5.46173 36149 ft 451 kts 288°
2026-04-30 14:15 47.88091 5.37239 36156 ft 451 kts 288°
2026-04-30 14:16 47.89987 5.28319 36148 ft 451 kts 294°
2026-04-30 14:16 47.93199 5.20375 36154 ft 447 kts 313°
2026-04-30 14:17 47.97398 5.13527 36153 ft 448 kts 315°
2026-04-30 14:17 48.01641 5.06694 36144 ft 449 kts 314°
2026-04-30 14:18 48.05862 4.99778 36155 ft 451 kts 314°
2026-04-30 14:18 48.12180 4.89306 36154 ft 453 kts 313°
2026-04-30 14:19 48.18508 4.78773 36147 ft 454 kts 313°
2026-04-30 14:20 48.22724 4.71734 36153 ft 454 kts 314°
2026-04-30 14:20 48.29045 4.61147 36144 ft 454 kts 313°
2026-04-30 14:21 48.33245 4.54067 36147 ft 454 kts 313°
2026-04-30 14:22 48.39534 4.43422 36152 ft 454 kts 313°
2026-04-30 14:22 48.45782 4.32808 36162 ft 454 kts 313°
2026-04-30 14:23 48.54148 4.18528 36169 ft 455 kts 313°
2026-04-30 14:24 48.60416 4.07780 36159 ft 455 kts 313°
2026-04-30 14:25 48.68764 3.93394 36159 ft 455 kts 313°
2026-04-30 14:26 48.75152 3.82769 36186 ft 454 kts 316°
2026-04-30 14:27 48.81972 3.72779 36172 ft 455 kts 318°
2026-04-30 14:27 48.86517 3.66092 36170 ft 455 kts 317°
2026-04-30 14:28 48.93292 3.55977 36180 ft 455 kts 317°
2026-04-30 14:28 48.97792 3.49215 36153 ft 455 kts 317°
2026-04-30 14:29 49.06033 3.36789 36171 ft 454 kts 317°
2026-04-30 14:31 49.17972 3.18682 36162 ft 455 kts 316°
2026-04-30 14:31 49.24698 3.08424 36170 ft 455 kts 316°
2026-04-30 14:32 49.31414 2.98139 36164 ft 455 kts 316°
2026-04-30 14:33 49.35884 2.91271 36172 ft 455 kts 316°
2026-04-30 14:33 49.42589 2.80932 36179 ft 456 kts 316°
2026-04-30 14:34 49.47056 2.74021 36177 ft 456 kts 316°
2026-04-30 14:34 49.50776 2.68250 36164 ft 457 kts 316°
2026-04-30 14:35 49.57386 2.57965 36150 ft 457 kts 315°
2026-04-30 14:36 49.61952 2.51167 36152 ft 456 kts 322°
2026-04-30 14:36 49.66983 2.45248 36159 ft 455 kts 325°
2026-04-30 14:37 49.72088 2.39432 36177 ft 456 kts 324°
2026-04-30 14:37 49.77156 2.33542 36175 ft 456 kts 324°
2026-04-30 14:38 49.82199 2.27594 36168 ft 456 kts 324°
2026-04-30 14:38 49.87237 2.21619 36162 ft 456 kts 323°
2026-04-30 14:39 49.92266 2.15641 36167 ft 456 kts 323°
2026-04-30 14:39 49.97297 2.09649 36173 ft 456 kts 323°
2026-04-30 14:40 50.04839 2.00636 36167 ft 456 kts 323°
2026-04-30 14:40 50.09816 1.94667 36165 ft 456 kts 323°
2026-04-30 14:41 50.14832 1.88636 36177 ft 456 kts 323°
2026-04-30 14:41 50.19644 1.82353 36173 ft 456 kts 317°
2026-04-30 14:42 50.24063 1.75533 36160 ft 457 kts 315°
2026-04-30 14:42 50.28552 1.68521 36164 ft 456 kts 316°
2026-04-30 14:43 50.33073 1.61562 36161 ft 456 kts 316°
2026-04-30 14:43 50.37610 1.54612 36160 ft 456 kts 316°
2026-04-30 14:44 50.42138 1.47654 36155 ft 456 kts 316°
2026-04-30 14:44 50.46657 1.40688 36160 ft 455 kts 316°
2026-04-30 14:45 50.51136 1.33651 36159 ft 456 kts 313°
2026-04-30 14:45 50.55402 1.26278 36169 ft 456 kts 312°
2026-04-30 14:46 50.59730 1.18972 36169 ft 457 kts 314°
2026-04-30 14:46 50.64233 1.11909 36180 ft 457 kts 315°
2026-04-30 14:47 50.68749 1.04848 36187 ft 457 kts 315°
2026-04-30 14:47 50.73244 0.97727 36197 ft 458 kts 315°
2026-04-30 14:48 50.77722 0.90581 36182 ft 459 kts 314°
2026-04-30 14:48 50.82210 0.83400 36192 ft 459 kts 314°
2026-04-30 14:49 50.86700 0.76202 36189 ft 460 kts 314°
2026-04-30 14:49 50.91206 0.69014 36197 ft 460 kts 314°
2026-04-30 14:50 50.95679 0.61865 35806 ft 452 kts 314°
2026-04-30 14:50 50.97866 0.58349 35491 ft 445 kts 314°
2026-04-30 14:51 51.02155 0.51346 34735 ft 439 kts 314°
2026-04-30 14:51 51.04272 0.47880 34353 ft 437 kts 314°
2026-04-30 14:51 51.08509 0.41019 33522 ft 433 kts 315°
2026-04-30 14:52 51.10676 0.37714 33123 ft 430 kts 316°
2026-04-30 14:52 51.15002 0.31220 32378 ft 424 kts 316°
2026-04-30 14:52 51.17138 0.27994 32016 ft 421 kts 316°
2026-04-30 14:53 51.21347 0.21577 31317 ft 416 kts 315°
2026-04-30 14:53 51.23402 0.18427 30972 ft 414 kts 315°
2026-04-30 14:54 51.27525 0.12093 30280 ft 409 kts 315°
2026-04-30 14:54 51.31600 0.05818 29514 ft 404 kts 315°
2026-04-30 14:55 51.36038 0.00521 28839 ft 395 kts 330°
2026-04-30 14:55 51.38409 -0.01690 28475 ft 393 kts 330°
2026-04-30 14:55 51.43111 -0.06047 27749 ft 388 kts 330°
2026-04-30 14:56 51.47731 -0.10401 27072 ft 383 kts 330°
2026-04-30 14:56 51.52286 -0.14742 26407 ft 379 kts 330°
2026-04-30 14:57 51.54544 -0.16902 26077 ft 377 kts 330°
2026-04-30 14:57 51.59023 -0.21194 25511 ft 373 kts 330°
2026-04-30 14:58 51.63460 -0.25454 24881 ft 370 kts 330°
2026-04-30 14:58 51.65664 -0.27574 24558 ft 368 kts 330°
2026-04-30 14:58 51.70057 -0.31782 23919 ft 366 kts 330°
2026-04-30 14:59 51.74427 -0.35966 23190 ft 364 kts 330°
2026-04-30 15:00 51.80898 -0.42184 22100 ft 358 kts 329°
2026-04-30 15:00 51.85177 -0.46357 21393 ft 361 kts 329°
2026-04-30 15:01 51.89493 -0.50585 20683 ft 364 kts 329°
2026-04-30 15:01 51.90929 -0.51992 20443 ft 365 kts 329°
2026-04-30 15:01 51.96007 -0.56970 19591 ft 364 kts 328°
2026-04-30 15:02 51.98173 -0.59086 19225 ft 363 kts 328°
2026-04-30 15:02 52.00335 -0.61199 18871 ft 362 kts 328°
2026-04-30 15:03 52.06738 -0.67474 17721 ft 358 kts 328°
2026-04-30 15:03 52.10978 -0.71644 17001 ft 354 kts 328°
2026-04-30 15:04 52.15168 -0.75774 16297 ft 350 kts 328°
2026-04-30 15:04 52.21381 -0.81913 15255 ft 346 kts 329°
2026-04-30 15:05 52.25589 -0.90704 14251 ft 333 kts 280°
2026-04-30 15:06 52.26562 -0.98069 13565 ft 331 kts 278°
2026-04-30 15:06 52.27520 -1.05387 12895 ft 328 kts 279°
2026-04-30 15:07 52.28493 -1.12625 12240 ft 324 kts 278°
2026-04-30 15:07 52.29461 -1.19779 11610 ft 321 kts 278°
2026-04-30 15:08 52.30420 -1.26872 10978 ft 318 kts 278°
2026-04-30 15:08 52.32856 -1.36746 10022 ft 323 kts 314°
2026-04-30 15:09 52.36165 -1.41617 9316 ft 315 kts 317°
2026-04-30 15:09 52.39388 -1.46259 8652 ft 303 kts 317°
2026-04-30 15:10 52.42501 -1.50807 8067 ft 298 kts 316°
2026-04-30 15:11 52.48603 -1.59818 6849 ft 295 kts 316°
2026-04-30 15:11 52.51643 -1.64333 6164 ft 293 kts 316°
2026-04-30 15:12 52.56138 -1.71021 5288 ft 288 kts 316°
2026-04-30 15:13 52.59068 -1.75393 4690 ft 281 kts 316°
2026-04-30 15:14 52.60943 -1.85766 3488 ft 236 kts 233°
2026-04-30 15:14 52.57529 -1.88461 2791 ft 165 kts 141°
2026-04-30 15:16 52.53023 -1.83310 1922 ft 151 kts 140°
2026-04-30 15:17 52.49657 -1.79560 1177 ft 137 kts 142°
2026-04-30 15:18 52.45729 -1.75179 323 ft 115 kts 144°
2026-04-30 15:19 52.44948 -1.74279 326 ft 14 kts 101°